Location: Auckland
(36.8670°S, 174.7670°E)
Time: 09:35:07
(UTC+12:00)

Tiros 1 despin weight - Pass Details

Date: 22 July 2019
Orbit: 594 x 642 km, 48.2° (Epoch: 19 August)

Event Time Altitude Azimuth Distance (km) Brightness Sun altitude
Rises 00:31:48 0° 289° (WNW) 2,836 - -73.6°
Reaches altitude 10° 00:34:09 10° 283° (WNW) 1,938 - -73.5°
Maximum altitude 00:38:26 47° 208° (SSW) 805 - -73.4°
Drops below altitude 10° 00:42:46 10° 133° (SE) 1,959 - -73.3°
Sets 00:45:10 0° 127° (SE) 2,871 - -73.1°
